Location: Akgöl Batakl???
(38.9482°N, 31.8837°E)
Time: 21:04:17
(UTC+00:00)

Okean 1 Rocket - Pass Details

Date: 08 May 2026
Orbit: 600 x 626 km, 82.5° (Epoch: 8 June)

Event Time Altitude Azimuth Distance (km) Brightness Sun altitude
Exits shadow 18:08:56 - 179° (S) 2,152 5.5 -13.9°
Reaches altitude 10° 18:09:25 10° 178° (S) 1,961 5.3 -13.9°
Maximum altitude 18:13:44 71° 96° (E) 654 3.0 -14.6°
Drops below altitude 10° 18:18:07 10° 12° (NNE) 1,992 6.0 -15.3°
Sets 18:20:22 0° 10° (N) 2,906 6.9 -15.6°
